Date String (YYYY-MM-DD hh:mm:ss) UTC,Instrument flags,absolute air pressure of the measurement (hPa),sample flow rate (lpm),inlet stack bypass flow (lpm),air temperature of the measurement (°C),ambient temperature measured by the external sensor (°C),aerosol sample conditioner tube jacket temperature (°C),OPC LED temperature (°C),internal box temperature (°C),relative humidity of the measurement (%),span deviation,mass concentration of particles derived from Lorenz-Mie calculation of OPC scattering (μg/m³),mass concentration of particles derived from Lorenz-Mie calculation of OPC scattering (μg/m³),mass concentration of particles derived from Lorenz-Mie calculation of OPC scattering (μg/m³)
DateTimeUTC,F1_M11,P_M11,Q1_M11,Q2_M11,T1_M11,T2_M11,T3_M11,T4_M11,T5_M11,U1_M11,ZSPAN_M11,X2_M11,X0_M11,X1_M11
2023-06-30 15:00:00,SystemResetWarning,0833.8,4.99,000.00,029.5,026.3,000.0,038.3,030.7,28.3,0000.0,0003.41,0009.39,0002.48
2023-06-30 15:01:00,SystemResetWarning,0833.7,5.00,000.00,029.5,026.6,000.0,038.2,030.7,28.5,0000.0,0003.39,0009.45,0002.49
2023-06-30 15:02:00,SystemResetWarning,0833.8,5.00,000.00,029.5,026.9,000.0,038.2,030.8,28.5,0000.0,0003.41,0009.46,0002.51
2023-06-30 15:03:00,SystemResetWarning,0833.9,5.00,000.00,029.5,027.2,000.0,038.2,030.8,28.5,0000.0,0003.42,0008.82,0002.51
2023-06-30 15:04:00,SystemResetWarning,0833.9,5.01,000.00,029.5,027.4,000.0,038.2,030.9,28.5,0000.0,0003.46,0008.64,0002.53
2023-06-30 15:05:00,SystemResetWarning,0833.9,5.00,000.00,029.5,027.5,000.0,038.2,030.9,28.8,0000.0,0003.44,0007.88,0002.54
2023-06-30 15:06:00,SystemResetWarning,0833.8,4.99,000.00,029.5,027.6,000.0,038.2,031.0,29.4,0000.0,0003.40,0007.57,0002.51
2023-06-30 15:07:00,SystemResetWarning,0833.8,4.99,000.00,029.5,027.7,000.0,038.2,031.0,29.8,0000.0,0003.39,0007.54,0002.51
2023-06-30 15:08:00,SystemResetWarning,0833.9,4.99,000.00,029.5,027.8,000.0,038.2,031.0,29.7,0000.0,0003.45,0007.72,0002.52
2023-06-30 15:09:00,SystemResetWarning,0833.8,5.00,000.00,029.5,027.9,000.0,038.1,031.0,29.5,0000.0,0003.48,0007.78,0002.53
2023-06-30 15:10:00,SystemResetWarning,0833.9,5.00,000.00,029.5,028.0,000.0,038.1,031.0,29.2,0000.0,0003.53,0007.79,0002.53
2023-06-30 15:11:00,SystemResetWarning,0834.1,5.00,000.00,029.5,028.0,000.0,038.1,031.1,28.9,0000.0,0003.53,0007.65,0002.52
2023-06-30 15:12:00,SystemResetWarning,0833.9,5.00,000.00,029.5,028.1,000.0,038.1,031.0,28.5,0000.0,0003.54,0007.71,0002.51
2023-06-30 15:13:00,SystemResetWarning,0833.9,5.00,000.00,029.5,028.1,000.0,038.1,031.1,28.0,0000.0,0003.53,0007.90,0002.48
2023-06-30 15:14:00,SystemResetWarning,0833.8,5.01,000.00,029.6,028.1,000.0,038.1,031.1,27.5,0000.0,0003.49,0007.74,0002.46
2023-06-30 15:15:00,SystemResetWarning,0833.8,5.00,000.00,029.6,028.1,000.0,038.1,031.1,27.3,0000.0,0003.43,0007.87,0002.42
2023-06-30 15:16:00,SystemResetWarning,0833.9,5.00,000.00,029.6,028.2,000.0,038.1,031.1,27.1,0000.0,0003.40,0007.91,0002.38
2023-06-30 15:17:00,SystemResetWarning,0833.8,5.00,000.00,029.6,028.2,000.0,038.2,031.1,27.0,0000.0,0003.36,0007.85,0002.34
2023-06-30 15:18:00,SystemResetWarning,0833.8,5.00,000.00,029.6,028.2,000.0,038.2,031.1,26.7,0000.0,0003.28,0007.66,0002.28
2023-06-30 15:19:00,SystemResetWarning,0833.9,5.01,000.00,029.6,028.2,000.0,038.2,031.1,26.3,0000.0,0003.17,0007.48,0002.22
2023-06-30 15:20:00,SystemResetWarning,0833.9,5.00,000.00,029.6,028.3,000.0,038.2,031.1,26.6,0000.0,0003.08,0007.42,0002.15
2023-06-30 15:21:00,SystemResetWarning,0833.9,5.00,000.00,029.6,028.3,000.0,038.2,031.2,26.5,0000.0,0002.92,0007.05,0002.10
2023-06-30 15:22:00,SystemResetWarning,0833.7,5.00,000.00,029.6,028.3,000.0,038.2,031.2,26.5,0000.0,0002.77,0006.56,0002.03
2023-06-30 15:23:00,SystemResetWarning,0833.8,5.00,000.00,029.7,028.3,000.0,038.2,031.2,26.9,0000.0,0002.69,0006.08,0002.00
2023-06-30 15:24:00,SystemResetWarning,0833.7,5.00,000.00,029.7,028.3,000.0,038.2,031.2,27.3,0000.0,0002.61,0005.61,0001.96
2023-06-30 15:25:00,SystemResetWarning,0833.7,5.00,000.00,029.7,028.3,000.0,038.2,031.2,27.2,0000.0,0002.57,0005.71,0001.95
2023-06-30 15:26:00,SystemResetWarning,0833.6,5.00,000.00,029.7,028.3,000.0,038.2,031.2,27.2,0000.0,0002.54,0004.86,0001.93
2023-06-30 15:27:00,SystemResetWarning,0833.6,5.00,000.00,029.7,028.4,000.0,038.2,031.3,27.3,0000.0,0002.48,0004.56,0001.90
2023-06-30 15:28:00,SystemResetWarning,0833.5,5.00,000.00,029.7,028.4,000.0,038.2,031.3,27.0,0000.0,0002.40,0004.37,0001.88
2023-06-30 15:29:00,SystemResetWarning,0833.4,5.00,000.00,029.7,028.4,000.0,038.3,031.3,26.9,0000.0,0002.41,0004.37,0001.88
2023-06-30 15:30:00,SystemResetWarning,0833.4,5.00,000.00,029.7,028.4,000.0,038.3,031.3,26.7,0000.0,0002.44,0004.18,0001.88
2023-06-30 15:31:00,SystemResetWarning,0833.4,5.00,000.00,029.7,028.4,000.0,038.3,031.3,26.9,0000.0,0002.42,0004.00,0001.88
2023-06-30 15:32:00,SystemResetWarning,0833.4,5.00,000.00,029.8,028.5,000.0,038.3,031.3,26.8,0000.0,0002.38,0003.97,0001.87
2023-06-30 15:33:00,SystemResetWarning,0833.4,5.01,000.00,029.8,028.5,000.0,038.3,031.3,27.1,0000.0,0002.38,0004.08,0001.88
2023-06-30 15:34:00,SystemResetWarning,0833.4,5.01,000.00,029.8,028.5,000.0,038.3,031.3,27.4,0000.0,0002.38,0004.08,0001.87
2023-06-30 15:35:00,SystemResetWarning,0833.4,5.00,000.00,029.8,028.5,000.0,038.3,031.3,27.7,0000.0,0002.43,0004.34,0001.88
2023-06-30 15:36:00,SystemResetWarning,0833.3,5.00,000.00,029.8,028.5,000.0,038.3,031.4,28.1,0000.0,0002.44,0004.23,0001.86
2023-06-30 15:37:00,SystemResetWarning,0833.2,5.00,000.00,029.8,028.5,000.0,038.4,031.4,28.5,0000.0,0002.47,0004.12,0001.85
2023-06-30 15:38:00,SystemResetWarning,0833.2,5.00,000.00,029.8,028.5,000.0,038.4,031.4,28.5,0000.0,0002.53,0004.21,0001.88
2023-06-30 15:39:00,SystemResetWarning,0833.2,4.99,000.00,029.8,028.5,000.0,038.4,031.4,28.9,0000.0,0002.61,0004.43,0001.92
2023-06-30 15:40:00,SystemResetWarning,0833.2,5.00,000.00,029.8,028.5,000.0,038.4,031.4,28.7,0000.0,0002.67,0004.61,0001.95
2023-06-30 15:41:00,SystemResetWarning,0833.2,5.00,000.00,029.8,028.5,000.0,038.4,031.4,29.1,0000.0,0002.74,0005.08,0001.98
2023-06-30 15:42:00,SystemResetWarning,0833.3,4.99,000.00,029.9,028.6,000.0,038.4,031.4,28.2,0000.0,0002.83,0006.12,0002.01
2023-06-30 15:43:00,SystemResetWarning,0833.2,5.00,000.00,029.9,028.6,000.0,038.4,031.4,28.6,0000.0,0002.94,0006.84,0002.05
2023-06-30 15:44:00,SystemResetWarning,0833.2,5.00,000.00,029.9,028.6,000.0,038.4,031.4,29.0,0000.0,0002.98,0007.03,0002.08
2023-06-30 15:45:00,SystemResetWarning,0833.2,5.00,000.00,029.9,028.6,000.0,038.4,031.4,28.9,0000.0,0003.00,0007.48,0002.10
2023-06-30 15:46:00,SystemResetWarning,0833.2,5.00,000.00,029.9,028.6,000.0,038.5,031.4,28.8,0000.0,0003.00,0007.35,0002.12
2023-06-30 15:47:00,SystemResetWarning,0833.2,5.01,000.00,029.9,028.6,000.0,038.5,031.5,29.0,0000.0,0003.04,0007.40,0002.16
2023-06-30 15:48:00,SystemResetWarning,0833.1,5.00,000.00,029.9,028.7,000.0,038.5,031.5,27.3,0000.0,0003.08,0008.13,0002.18
2023-06-30 15:49:00,SystemResetWarning,0833.1,4.99,000.00,029.9,028.7,000.0,038.5,031.5,27.4,0000.0,0003.07,0008.83,0002.17
2023-06-30 15:50:00,SystemResetWarning,0833.1,4.99,000.00,029.9,028.7,000.0,038.5,031.5,27.4,0000.0,0003.10,0008.87,0002.16
2023-06-30 15:51:00,SystemResetWarning,0833.2,5.00,000.00,030.0,028.7,000.0,038.5,031.5,27.6,0000.0,0003.11,0009.55,0002.16
2023-06-30 15:52:00,SystemResetWarning,0833.1,5.00,000.00,030.0,027.4,000.0,038.4,031.4,27.5,0000.0,0003.10,0010.18,0002.15
2023-06-30 15:53:00,SystemResetWarning,0833.0,5.00,000.00,029.9,025.8,000.0,038.3,031.2,26.7,0000.0,0003.03,0009.82,0002.14
2023-06-30 15:54:00,SystemResetWarning,0832.9,5.00,000.00,029.8,025.4,000.0,038.2,030.9,28.1,0000.0,0002.96,0009.65,0002.12
2023-06-30 15:55:00,SystemResetWarning,0832.9,5.00,000.00,029.6,025.6,000.0,038.2,030.7,28.0,0000.0,0002.97,0009.64,0002.12
2023-06-30 15:56:00,SystemResetWarning,0832.9,5.01,000.00,029.6,026.0,000.0,038.2,030.7,28.9,0000.0,0002.98,0009.35,0002.12
2023-06-30 15:57:00,SystemResetWarning,0833.0,4.98,000.00,029.5,026.4,000.0,038.2,030.8,28.5,0000.0,0003.00,0009.65,0002.13
2023-06-30 15:58:00,SystemResetWarning,0832.9,4.99,000.00,029.5,026.7,000.0,038.2,030.9,28.9,0000.0,0003.01,0009.64,0002.12
2023-06-30 15:59:00,SystemResetWarning,0833.0,5.02,000.00,029.5,027.0,000.0,038.2,030.9,28.0,0000.0,0002.95,0009.08,0002.10
